Skip Page Navigation
NASA JPL Caltech
NASA Logo - Jet Propulsion Laboratory + View the NASA Portal
+ Near-Earth Object (NEO) Program
Search JPL
JPL Home Earth Solar System Stars & Galaxies Technology
JPL Solar System Dynamics
BODIES ORBITS EPHEMERIDES TOOLS PHYSICAL DATA DISCOVERY FAQ SITE MAP
JPL Small-Body Database Browser
Search: [ help ]  
3728 IRAS (1983 QF)
Classification: Main-belt Asteroid          SPK-ID: 2003728
Ephemeris | Orbit Diagram | Orbital Elements | Physical Parameters | Discovery Circumstances ]

[ show orbit diagram ]
Orbital Elements at Epoch 2457000.5 (2014-Dec-09.0) TDB
Reference: JPL 12 (heliocentric ecliptic J2000)
 Element Value Uncertainty (1-sigma)   Units 
e .2131304898059055 4.218e-08  
a 2.650302438412947 1.6073e-08 AU
q 2.08544218158021 1.1377e-07 AU
i 22.59317233850453 7.3029e-06 deg
node 167.3731339613075 1.3283e-05 deg
peri 281.2303170511373 2.2183e-05 deg
M 47.65720914353047 1.6589e-05 deg
tp 2456791.874357909304
(2014-May-14.37435791)
7.2208e-05 JED
period 1575.946902942939
4.31
1.4336e-05
3.925e-08
d
yr
n .2284340921180355 2.0781e-09 deg/d
Q 3.215162695245684 1.9499e-08 AU
  Orbit Determination Parameters
   # obs. used (total)      1136  
   data-arc span      24278 days (66.47 yr)  
   first obs. used      1948-09-07  
   last obs. used      2015-02-26  
   planetary ephem.      DE431  
   SB-pert. ephem.      SB431-BIG16  
   condition code      0  
   fit RMS      .49376  
   data source      ORB  
   producer      Otto Matic  
   solution date      2015-Mar-09 13:49:39  

Additional Information
 Earth MOID = 1.22237 AU 
 T_jup = 3.251 
[ show covariance matrix ]

Ephemeris | Orbit Diagram | Orbital Elements | Physical Parameters | Discovery Circumstances ]

Physical Parameter Table
Parameter Symbol Value Units Sigma Reference Notes
absolute magnitude H 11.9 mag n/a MPO279554  
diameter diameter 19.55 km 1.7 IRAS-A-FPA-3-RDR-IMPS-V6.0 IRAS observations used: 12
rotation period rot_per 8.323 h n/a LCDB (Rev. 2015-Feb); Warner et al., 2009 Published Reference List:
[Warner, B.D. (2009) Minor Planet Bul. 36, 7-13.]
geometric albedo albedo 0.1161   0.023 IRAS-A-FPA-3-RDR-IMPS-V6.0 IRAS observations used: 12

3728 IRAS (1983 QF)          Discovered 1983-Aug-23 by IRAS
Reference: DISCOVERY.DBLast Updated: 2003-08-29

Alternate Designations
 1983 QF = 1948 RN = 1963 FA = 1972 FH = 1976 GL = 1985 GT 
Ephemeris | Orbit Diagram | Orbital Elements | Physical Parameters | Discovery Circumstances ]
ABOUT SSD CREDITS/AWARDS PRIVACY/COPYRIGHT GLOSSARY LINKS
FirstGov 2015-Mar-29 20:50 UT
(server date/time)  
NASA Home Page
Site Manager:   Ryan S. Park
Webmaster  Alan B. Chamberlin